Location: Bright Sky Observatory
(40.7821°N, 74.2425°W)
Time: 17:54:05
(UTC-04:00)

Amateur Radio Satellites - All Passes

Search period start: 28 May 2015 17:24
Search period end: 29 May 2015 17:24
Location: Bright Sky Observatory, 40.7821°N, 74.2425°W

Satellite Date Start Highest point End Downlink Frequencies (MHz)
Time Altitude Azimuth
STARS 28 May 17:27:13 17:30:20 18° 294° (WNW) 17:33:17 437.465
CUTE-I 28 May 17:44:38 17:49:26 37° 69° (ENE) 17:54:19 437.470
BEESAT 3 28 May 17:48:35 17:52:37 68° 120° (ESE) 17:56:43 437.485
AO-7 28 May 18:01:56 18:07:17 17° 272° (W) 18:12:08 29.400- 29.500
Cubesat XI-IV 28 May 18:05:20 18:10:30 57° 73° (ENE) 18:15:46 437.490
MOZHAYETS 4 28 May 18:07:35 18:11:59 48° 287° (WNW) 18:16:23
CUBESAT XI-V 28 May 18:15:08 18:18:03 17° 90° (E) 18:21:09 437.345
YUBILEINY 28 May 18:39:22 18:48:02 68° 79° (E) 18:56:42 435.215
STRAND 1 28 May 18:39:31 18:41:18 12° 87° (E) 18:43:25 437.568
BEESAT 2 28 May 18:40:00 18:43:56 43° 307° (NW) 18:47:55 435.950
AIST 2 28 May 18:41:00 18:45:10 55° 118° (ESE) 18:49:23 435.215
HO-68 28 May 18:43:37 18:46:27 13° 52° (NE) 18:49:40 435.675
Cosmos 2491 28 May 18:43:46 18:51:30 38° 87° (E) 18:59:27 435.465 / 435.565
PRISM 28 May 18:52:45 18:55:11 16° 92° (E) 18:57:47 437.425
RS-15 28 May 19:10:11 19:21:29 57° 247° (WSW) 19:33:06 29.354- 29.394
GOMX 1 28 May 19:11:01 19:13:58 16° 62° (ENE) 19:17:13 467.674
BRITE-PL 28 May 19:16:13 19:20:26 26° 66° (ENE) 19:24:59 437.365/2234.400
CUTE-I 28 May 19:25:04 19:29:36 28° 266° (W) 19:34:06 437.470
BEESAT 3 28 May 19:28:39 19:31:06 15° 319° (NW) 19:33:25 437.485
Cubesat XI-IV 28 May 19:47:28 19:51:04 18° 270° (W) 19:54:29 437.490
CANX-2 28 May 19:50:01 19:53:01 19° 68° (ENE) 19:56:07 2200.000
CUBESAT XI-V 28 May 19:51:16 19:55:49 49° 287° (WNW) 20:00:21 437.345
CUTE 1.7 + AOD 2 28 May 19:53:20 19:56:17 19° 68° (ENE) 19:59:20 437.475
DOVE 4 28 May 20:01:09 20:05:32 29° 68° (ENE) 20:10:07 437.250
AIST 1 28 May 20:04:39 20:08:11 26° 90° (E) 20:11:49
SEEDS 28 May 20:12:29 20:15:52 25° 70° (ENE) 20:19:21 437.485
STRAND 1 28 May 20:16:02 20:21:12 78° 286° (WNW) 20:26:21 437.568
AIST 2 28 May 20:21:03 20:24:06 18° 317° (NW) 20:27:04 435.215
COMPASS 1 28 May 20:22:39 20:26:05 25° 70° (ENE) 20:29:34 437.405
HO-68 28 May 20:25:56 20:33:01 66° 70° (ENE) 20:40:09 435.675
PRISM 28 May 20:26:56 20:30:53 42° 288° (WNW) 20:34:48 437.425
AAUSAT CUBESAT 2 28 May 20:33:01 20:36:34 28° 71° (ENE) 20:40:10 437.432
YUBILEINY 28 May 20:37:26 20:44:12 25° 277° (W) 20:50:38 435.215
Cosmos 2504 28 May 20:38:02 20:44:36 38° 73° (ENE) 20:51:14 435.465 / 435.565
Cosmos 2491 28 May 20:39:46 20:48:13 48° 286° (WNW) 20:56:40 435.465 / 435.565
M-CUBED/EXP-1 PRIME 28 May 20:40:07 20:43:26 89° 96° (E) 20:46:47 437.505
GOMX 1 28 May 20:46:16 20:51:26 74° 258° (WSW) 20:56:55 467.674
AUBIESAT-1 28 May 20:46:27 20:49:46 89° 289° (WNW) 20:53:07 437.475
DELFI C3 28 May 20:49:14 20:51:15 14° 66° (ENE) 20:53:27 145.870
UWE-3 28 May 20:49:42 20:52:41 18° 66° (ENE) 20:55:49 435.000/436.395/437.385
BRITE-PL 28 May 20:53:51 20:58:42 41° 264° (W) 21:03:53 437.365/2234.400
FUNcube-1 28 May 20:55:09 20:57:38 15° 65° (ENE) 21:00:18 145.935
CINEMA 3 28 May 21:01:59 21:06:51 55° 74° (ENE) 21:11:48 145.822/145.860
HUMSAT D 28 May 21:16:31 21:17:29 11° 64° (ENE) 21:18:41 437.325/437.525
CANX-2 28 May 21:24:46 21:28:44 36° 263° (W) 21:32:40 2200.000
CUTE 1.7 + AOD 2 28 May 21:28:00 21:31:58 37° 263° (W) 21:35:55 437.475
UKube-1 28 May 21:33:58 21:36:45 17° 66° (ENE) 21:39:41 .
ZACube-1 28 May 21:34:33 21:38:46 38° 72° (ENE) 21:43:02 437.345
DOVE 4 28 May 21:38:26 21:43:10 35° 265° (W) 21:48:00 437.250
CUBEBUG 2 28 May 21:40:49 21:45:34 71° 75° (ENE) 21:50:19 437.445
AIST 1 28 May 21:42:21 21:45:50 23° 287° (WNW) 21:49:17
Oscar 11 28 May 21:42:31 21:46:50 81° 78° (ENE) 21:51:11 145.826/435.025
DX 1 28 May 21:44:50 21:48:18 24° 68° (ENE) 21:51:52 434.975-435.025
50 SAT 28 May 21:45:29 21:46:46 12° 65° (ENE) 21:48:15 437.505
SEEDS 28 May 21:47:58 21:51:36 27° 265° (W) 21:55:11 437.485
COMPASS 1 28 May 21:58:10 22:01:42 26° 265° (W) 22:05:12 437.405
STRAND 1 28 May 21:59:04 21:59:39 10° 301° (WNW) 21:59:54 437.568
VELOX 1 28 May 22:06:46 22:10:02 21° 67° (ENE) 22:13:26 145.980
AAUSAT CUBESAT 2 28 May 22:08:50 22:12:11 23° 266° (W) 22:15:29 437.432
HO-68 28 May 22:15:47 22:21:22 23° 269° (W) 22:26:43 435.675
ESTCUBE 1 28 May 22:17:54 22:20:39 17° 65° (ENE) 22:23:33 437.505/2401.250
DELFI C3 28 May 22:22:08 22:26:01 46° 261° (W) 22:29:55 145.870
UWE-3 28 May 22:24:17 22:28:51 50° 261° (W) 22:33:25 435.000/436.395/437.385
DANDE 28 May 22:24:29 22:27:17 13° 51° (NE) 22:30:19 436.750
FUNcube-1 28 May 22:29:02 22:33:33 57° 260° (W) 22:38:04 145.935
Cosmos 2504 28 May 22:31:28 22:37:57 37° 272° (W) 22:44:21 435.465 / 435.565
AISAT 28 May 22:38:00 22:42:14 46° 72° (ENE) 22:46:33 437.250
ANTELSAT 28 May 22:38:47 22:41:42 18° 91° (E) 22:44:43 437.575/2403.000
CINEMA 3 28 May 22:41:06 22:44:26 17° 271° (W) 22:47:35 145.822/145.860
CUSAT 1 28 May 22:41:29 22:46:08 19° 58° (ENE) 22:50:22 437.405
HUMSAT D 28 May 22:48:23 22:52:42 74° 258° (WSW) 22:57:01 437.325/437.525
ISS 28 May 23:02:01 23:05:13 65° 141° (SE) 23:08:27 145.825
UKube-1 28 May 23:08:28 23:12:36 43° 261° (W) 23:16:45 .
GONETS M04 28 May 23:09:00 23:15:53 26° 65° (ENE) 23:22:59
QB50P1 28 May 23:09:23 23:12:10 17° 91° (E) 23:15:04 145.935-145.965
TIGRISAT 28 May 23:09:49 23:13:53 38° 97° (E) 23:17:53 435.000
ZACube-1 28 May 23:11:45 23:15:17 21° 268° (W) 23:18:40 437.345
POLYITAN 1 28 May 23:12:20 23:15:20 19° 92° (E) 23:18:27 437.675
50 SAT 28 May 23:17:06 23:21:03 58° 260° (W) 23:24:59 437.505
PCSat 28 May 23:18:28 23:20:16 12° 104° (ESE) 23:22:24 145.827
DX 1 28 May 23:20:34 23:24:26 30° 264° (W) 23:28:17 434.975-435.025
CUBEBUG 2 28 May 23:20:51 23:22:49 12° 273° (W) 23:24:30 437.445
UNISAT 6 28 May 23:30:58 23:35:20 69° 101° (ESE) 23:39:36 437.425
CUBEBUG 1 28 May 23:34:13 23:38:35 89° 255° (WSW) 23:43:00 437.445
NANOSAT C BR1 28 May 23:39:05 23:43:02 36° 97° (E) 23:46:59 145.865
VELOX 1 28 May 23:42:16 23:46:23 36° 263° (W) 23:50:30 145.980
QB50P2 28 May 23:48:30 23:52:40 49° 99° (E) 23:56:47 145.880/145.840
ESTCUBE 1 28 May 23:52:50 23:57:10 48° 261° (W) 00:01:32 437.505/2401.250
POPSAT HIP 1 29 May 00:00:11 00:04:27 65° 101° (E) 00:08:40 437.405
DUCHIFAT 1 29 May 00:00:25 00:04:40 64° 101° (E) 00:08:52 145.980
DANDE 29 May 00:04:58 00:12:41 66° 76° (ENE) 00:18:38 436.750
SPROUT 29 May 00:05:19 00:09:31 54° 74° (ENE) 00:13:47 437.525
BUGSAT 1 29 May 00:14:16 00:18:31 63° 101° (E) 00:22:43 437.445
ANTELSAT 29 May 00:14:38 00:18:42 38° 289° (WNW) 00:22:40 437.575/2403.000
AISAT 29 May 00:16:14 00:19:07 16° 269° (W) 00:21:51 437.250
TISAT 1 29 May 00:20:35 00:24:45 59° 74° (ENE) 00:28:59 437.305
VERMONT LUNAR 29 May 00:22:31 00:24:19 14° 149° (SSE) 00:26:12 437.305
CUSAT 1 29 May 00:22:58 00:30:00 72° 264° (W) 00:35:19 437.405
ITUPSAT 1 29 May 00:36:22 00:39:05 16° 64° (ENE) 00:42:00 437.325
ISS 29 May 00:39:16 00:41:53 22° 339° (NNW) 00:44:29 145.825
BEESAT 29 May 00:42:13 00:45:22 18° 65° (ENE) 00:48:40 436.000
QB50P1 29 May 00:44:13 00:48:14 39° 288° (WNW) 00:52:12 145.935-145.965
TIGRISAT 29 May 00:47:15 00:50:24 19° 293° (WNW) 00:53:22 435.000
POLYITAN 1 29 May 00:47:27 00:51:24 36° 289° (WNW) 00:55:17 437.675
SWISSCUBE 29 May 00:50:26 00:54:08 24° 67° (ENE) 00:57:57 437.505
PCSat 29 May 00:57:36 01:03:02 87° 298° (WNW) 01:08:30 145.827
Cosmos 2499 29 May 01:01:45 01:06:42 21° 65° (ENE) 01:11:57 435.465 / 435.565
O/OREOS (USA 219) 29 May 01:02:39 01:06:57 45° 63° (ENE) 01:11:16 437.305
GONETS M04 29 May 01:04:55 01:13:39 70° 266° (W) 01:22:15
UNISAT 6 29 May 01:10:05 01:11:35 11° 297° (WNW) 01:12:52 437.425
NANOSAT C BR1 29 May 01:15:31 01:18:38 19° 293° (WNW) 01:21:38 145.865
PHONESAT 2.4 29 May 01:16:59 01:18:05 11° 146° (SSE) 01:19:17 2401.200-2431.200
BEESAT 2 29 May 01:22:39 01:24:41 14° 40° (NE) 01:26:51 435.950
QB50P2 29 May 01:25:37 01:28:11 15° 295° (WNW) 01:30:35 145.880/145.840
Oscar 19 29 May 01:34:49 01:38:49 23° 93° (E) 01:42:56 437.125/150
POPSAT HIP 1 29 May 01:38:07 01:39:50 12° 296° (WNW) 01:41:20 437.405
DUCHIFAT 1 29 May 01:38:14 01:40:00 12° 296° (WNW) 01:41:33 145.980
SPROUT 29 May 01:43:52 01:46:01 13° 271° (W) 01:47:56 437.525
KKS-1 29 May 01:49:25 01:51:57 15° 65° (ENE) 01:54:40 437.445
DANDE 29 May 01:49:33 01:54:59 22° 279° (W) 01:59:22 436.750
BUGSAT 1 29 May 01:51:39 01:53:30 12° 296° (WNW) 01:55:09 437.445
VERMONT LUNAR 29 May 01:57:58 02:01:07 52° 164° (SSE) 02:04:15 437.305
TISAT 1 29 May 01:59:22 02:01:00 12° 271° (W) 02:02:23 437.305
BEESAT 3 29 May 02:07:38 02:11:27 37° 51° (NE) 02:15:14 437.485
SO-50 29 May 02:11:26 02:15:14 26° 113° (ESE) 02:19:15 436.795
ITUPSAT 1 29 May 02:11:52 02:16:33 58° 259° (W) 02:21:16 437.325
ISS 29 May 02:17:45 02:19:13 12° 359° (N) 02:20:41 145.825
BEESAT 29 May 02:18:17 02:22:53 49° 261° (W) 02:27:30 436.000
SWISSCUBE 29 May 02:27:26 02:31:49 36° 263° (W) 02:36:12 437.505
O/OREOS (USA 219) 29 May 02:43:11 02:46:03 16° 259° (WSW) 02:48:43 437.305
Gurwin Techsat 1B 29 May 02:43:26 02:48:00 29° 95° (E) 02:52:37 435.225
PCSat 29 May 02:44:00 02:47:20 16° 320° (NW) 02:50:30 145.827
STARS 29 May 02:46:33 02:50:37 37° 71° (ENE) 02:54:44 437.465
PHONESAT 2.4 29 May 02:52:22 02:55:42 43° 160° (SSE) 02:59:01 2401.200-2431.200
Cosmos 2499 29 May 02:53:35 03:00:35 67° 266° (W) 03:07:43 435.465 / 435.565
BEESAT 2 29 May 02:59:14 03:03:21 77° 240° (WSW) 03:07:23 435.950
AIST 2 29 May 03:03:08 03:07:01 34° 50° (NE) 03:10:51 435.215
GONETS M04 29 May 03:05:55 03:09:01 12° 284° (WNW) 03:11:23
Oscar 19 29 May 03:13:32 03:18:23 41° 290° (WNW) 03:23:10 437.125/150
KKS-1 29 May 03:23:48 03:28:12 54° 260° (W) 03:32:37 437.445
JAS-2 29 May 03:26:19 03:28:09 12° 88° (E) 03:30:20 435.910
ITAMSAT 1 29 May 03:32:02 03:37:18 86° 104° (ESE) 03:42:33 435.822/435.867
MOZHAYETS 4 29 May 03:33:59 03:36:39 16° 65° (ENE) 03:39:29
VERMONT LUNAR 29 May 03:35:01 03:38:14 88° 192° (SSW) 03:41:27 437.305
BEESAT 3 29 May 03:46:13 03:49:12 19° 248° (WSW) 03:52:03 437.485
SO-50 29 May 03:51:11 03:55:37 39° 310° (NW) 04:00:10 436.795
ISS 29 May 03:54:08 03:56:35 19° 19° (NNE) 03:59:04 145.825
AO-7 29 May 04:07:22 04:14:30 31° 95° (E) 04:21:48 29.400- 29.500
HORYU 2 29 May 04:08:42 04:12:38 31° 96° (E) 04:16:34 437.375
Gurwin Techsat 1B 29 May 04:23:13 04:28:02 35° 291° (WNW) 04:32:46 435.225
STARS 29 May 04:23:50 04:27:12 20° 267° (W) 04:30:28 437.465
PHONESAT 2.4 29 May 04:30:12 04:33:41 86° 182° (S) 04:37:11 2401.200-2431.200
AIST 2 29 May 04:42:03 04:45:26 23° 247° (WSW) 04:48:41 435.215
Cosmos 2491 29 May 04:54:55 05:00:20 18° 59° (ENE) 05:06:11 435.465 / 435.565
JAS-2 29 May 05:08:48 05:13:58 73° 286° (WNW) 05:19:21 435.910
MOZHAYETS 4 29 May 05:09:02 05:13:30 53° 261° (W) 05:17:59
VERMONT LUNAR 29 May 05:12:13 05:15:21 49° 197° (SSW) 05:18:27 437.305
ITAMSAT 1 29 May 05:13:48 05:16:10 13° 300° (WNW) 05:18:16 435.822/435.867
CUBESAT XI-V 29 May 05:18:53 05:21:40 16° 65° (ENE) 05:24:38 437.345
ISS 29 May 05:30:05 05:33:21 86° 222° (SW) 05:36:38 145.825
PRISM 29 May 05:44:02 05:45:28 12° 64° (ENE) 05:47:05 437.425
HORYU 2 29 May 05:45:33 05:49:09 24° 292° (WNW) 05:52:38 437.375
YUBILEINY 29 May 05:48:46 05:52:32 14° 78° (ENE) 05:56:56 435.215
STRAND 1 29 May 05:54:37 05:57:59 19° 64° (ENE) 06:01:32 437.568
M-CUBED/EXP-1 PRIME 29 May 05:56:48 05:57:26 10° 61° (ENE) 05:58:16 437.505
AO-7 29 May 05:59:34 06:07:45 59° 294° (WNW) 06:15:52 29.400- 29.500
AUBIESAT-1 29 May 06:02:48 06:03:20 10° 61° (ENE) 06:04:05 437.475
CUTE-I 29 May 06:03:13 06:05:59 15° 89° (E) 06:09:02 437.470
PHONESAT 2.4 29 May 06:08:20 06:11:47 63° 193° (SSW) 06:15:12 2401.200-2431.200
Cubesat XI-IV 29 May 06:23:28 06:27:39 23° 93° (E) 06:31:57 437.490
Cosmos 2491 29 May 06:49:54 06:58:48 86° 82° (E) 07:07:36 435.465 / 435.565
VERMONT LUNAR 29 May 06:50:27 06:52:06 13° 211° (SSW) 06:53:41 437.305
CUBESAT XI-V 29 May 06:54:15 06:58:43 52° 261° (W) 07:03:16 437.345
PRISM 29 May 07:16:26 07:20:28 59° 259° (WSW) 07:24:32 437.425
RS-15 29 May 07:24:10 07:32:04 25° 104° (ESE) 07:40:34 29.354- 29.394
M-CUBED/EXP-1 PRIME 29 May 07:27:46 07:31:57 70° 254° (WSW) 07:35:48 437.505
STRAND 1 29 May 07:31:49 07:36:49 55° 260° (W) 07:41:50 437.568
AUBIESAT-1 29 May 07:33:39 07:37:47 69° 253° (WSW) 07:41:36 437.475
YUBILEINY 29 May 07:39:22 07:48:06 79° 95° (E) 07:56:52 435.215
CUTE-I 29 May 07:41:19 07:46:41 70° 287° (WNW) 07:52:01 437.470
PHONESAT 2.4 29 May 07:46:56 07:49:32 20° 209° (SSW) 07:52:07 2401.200-2431.200
AIST 1 29 May 07:48:32 07:52:56 80° 82° (E) 07:57:21
AO-7 29 May 07:55:08 07:58:59 14° 313° (NW) 08:02:23 29.400- 29.500
HO-68 29 May 07:58:30 07:59:18 10° 84° (E) 08:00:45 435.675
Cubesat XI-IV 29 May 08:02:53 08:07:59 44° 290° (WNW) 08:13:03 437.490
PCSat 29 May 08:04:13 08:06:43 13° 38° (NE) 08:09:24 145.827
Cosmos 2491 29 May 08:48:50 08:54:39 19° 280° (W) 08:59:57 435.465 / 435.565
GOMX 1 29 May 08:49:10 08:54:04 37° 95° (E) 08:58:45 467.674
BRITE-PL 29 May 08:58:45 09:04:24 73° 100° (E) 09:09:44 437.365/2234.400
CINEMA 3 29 May 08:59:36 09:01:36 13° 87° (E) 09:03:48 145.822/145.860
CANX-2 29 May 09:10:07 09:14:01 36° 97° (E) 09:17:55 2200.000
CUTE 1.7 + AOD 2 29 May 09:13:18 09:17:10 35° 96° (E) 09:21:03 437.475
Cosmos 2504 29 May 09:15:38 09:22:44 34° 88° (E) 09:29:35 435.465 / 435.565
Oscar 11 29 May 09:31:33 09:33:54 15° 90° (E) 09:36:25 145.826/435.025
SEEDS 29 May 09:31:51 09:35:54 47° 99° (E) 09:39:56 437.485
RS-15 29 May 09:32:22 09:43:17 82° 304° (WNW) 09:54:33 29.354- 29.394
CUBEBUG 2 29 May 09:34:12 09:36:29 14° 89° (E) 09:38:56 437.445
ANTELSAT 29 May 09:37:41 09:40:47 18° 66° (ENE) 09:44:00 437.575/2403.000
DOVE 4 29 May 09:37:47 09:42:53 73° 101° (E) 09:47:39 437.250
YUBILEINY 29 May 09:39:24 09:46:05 22° 297° (WNW) 09:52:23 435.215
COMPASS 1 29 May 09:41:03 09:45:05 48° 99° (E) 09:49:06 437.405
HO-68 29 May 09:41:20 09:48:30 71° 103° (ESE) 09:55:38 435.675
PCSat 29 May 09:45:48 09:51:14 71° 58° (ENE) 09:56:38 145.827
AAUSAT CUBESAT 2 29 May 09:51:00 09:55:04 54° 100° (E) 09:59:07 437.432
DELFI C3 29 May 10:02:03 10:05:11 22° 94° (E) 10:08:23 145.870
QB50P1 29 May 10:02:49 10:04:57 14° 65° (ENE) 10:07:16 145.935-145.965
POLYITAN 1 29 May 10:05:53 10:08:20 15° 66° (ENE) 10:10:58 437.675
TIGRISAT 29 May 10:08:01 10:12:15 35° 71° (ENE) 10:16:28 435.000
UWE-3 29 May 10:15:00 10:18:53 32° 95° (E) 10:22:43 435.000/436.395/437.385
FUNcube-1 29 May 10:18:22 10:21:58 26° 94° (E) 10:25:34 145.935
GOMX 1 29 May 10:27:32 10:32:01 27° 293° (WNW) 10:36:13 467.674
UNISAT 6 29 May 10:29:10 10:33:46 61° 75° (ENE) 10:38:21 437.425
NANOSAT C BR1 29 May 10:31:32 10:35:08 27° 70° (ENE) 10:38:49 145.865
HUMSAT D 29 May 10:33:53 10:36:38 18° 92° (E) 10:39:30 437.325/437.525
CINEMA 3 29 May 10:34:44 10:39:22 59° 286° (WNW) 10:43:45 145.822/145.860
BRITE-PL 29 May 10:38:45 10:42:16 17° 298° (WNW) 10:45:29 437.365/2234.400
QB50P2 29 May 10:41:08 10:45:03 36° 71° (ENE) 10:49:01 145.880/145.840
SO-50 29 May 10:42:33 10:46:42 26° 45° (NE) 10:50:52 436.795
CANX-2 29 May 10:46:42 10:49:43 19° 292° (WNW) 10:52:36 2200.000
CUTE 1.7 + AOD 2 29 May 10:49:49 10:52:53 19° 292° (WNW) 10:55:48 437.475
DUCHIFAT 1 29 May 10:52:21 10:56:25 45° 73° (ENE) 11:00:32 145.980
POPSAT HIP 1 29 May 10:52:31 10:56:38 46° 73° (ENE) 11:00:47 437.405
50 SAT 29 May 10:54:53 10:57:13 16° 91° (E) 10:59:42 437.505
UKube-1 29 May 10:56:17 11:00:06 30° 96° (E) 11:03:57 .
ZACube-1 29 May 10:59:33 11:03:52 82° 102° (ESE) 11:08:05 437.345
BUGSAT 1 29 May 11:03:58 11:07:52 41° 72° (ENE) 11:11:52 437.445
Oscar 11 29 May 11:06:15 11:10:24 47° 287° (WNW) 11:14:31 145.826/435.025
Cosmos 2504 29 May 11:08:00 11:15:57 48° 284° (WNW) 11:23:20 435.465 / 435.565
DX 1 29 May 11:08:34 11:12:48 45° 99° (E) 11:17:01 434.975-435.025
SEEDS 29 May 11:08:56 11:11:21 15° 294° (WNW) 11:13:36 437.485
CUBEBUG 2 29 May 11:09:18 11:13:35 49° 287° (WNW) 11:17:43 437.445
ANTELSAT 29 May 11:12:44 11:17:15 47° 261° (W) 11:21:44 437.575/2403.000
DOVE 4 29 May 11:17:19 11:19:59 14° 298° (WNW) 11:22:22 437.250
COMPASS 1 29 May 11:18:04 11:20:24 14° 294° (WNW) 11:22:34 437.405
CUBEBUG 1 29 May 11:24:23 11:27:19 18° 91° (E) 11:30:23 437.445
AAUSAT CUBESAT 2 29 May 11:28:16 11:30:16 13° 295° (WNW) 11:32:05 437.432
HO-68 29 May 11:30:10 11:35:40 24° 301° (WNW) 11:40:56 435.675
PCSat 29 May 11:30:54 11:34:07 15° 255° (WSW) 11:37:04 145.827
VELOX 1 29 May 11:32:42 11:36:56 41° 98° (E) 11:41:11 145.980
DANDE 29 May 11:33:37 11:37:27 15° 78° (ENE) 11:42:04 436.750
QB50P1 29 May 11:36:11 11:40:24 55° 260° (W) 11:44:38 145.935-145.965
DELFI C3 29 May 11:36:52 11:40:18 27° 290° (WNW) 11:43:40 145.870
POLYITAN 1 29 May 11:39:42 11:43:53 49° 261° (W) 11:48:06 437.675
CUSAT 1 29 May 11:45:05 11:50:53 25° 84° (E) 11:57:23 437.405
TIGRISAT 29 May 11:45:18 11:49:04 23° 267° (W) 11:52:43 435.000
ESTCUBE 1 29 May 11:45:45 11:49:54 34° 97° (E) 11:54:03 437.505/2401.250
RS-15 29 May 11:48:25 11:57:45 29° 332° (NNW) 12:07:11 29.354- 29.394
UWE-3 29 May 11:51:52 11:55:16 22° 292° (WNW) 11:58:30 435.000/436.395/437.385
FUNcube-1 29 May 11:54:41 11:58:16 25° 291° (WNW) 12:01:41 145.935
AISAT 29 May 12:05:08 12:09:39 83° 284° (WNW) 12:14:07 437.250
NANOSAT C BR1 29 May 12:07:21 12:10:57 25° 266° (W) 12:14:29 145.865
UNISAT 6 29 May 12:08:34 12:10:59 13° 271° (W) 12:13:09 437.425
HUMSAT D 29 May 12:08:44 12:12:34 35° 288° (WNW) 12:16:18 437.325/437.525
GONETS M04 29 May 12:10:19 12:17:23 29° 84° (E) 12:24:45
QB50P2 29 May 12:17:55 12:21:05 19° 268° (W) 12:24:09 145.880/145.840
SO-50 29 May 12:22:43 12:27:28 45° 244° (WSW) 12:32:06 436.795
50 SAT 29 May 12:28:33 12:32:07 34° 288° (WNW) 12:35:36 437.505
DUCHIFAT 1 29 May 12:29:54 12:32:31 15° 270° (W) 12:34:59 145.980
POPSAT HIP 1 29 May 12:30:15 12:32:49 15° 270° (W) 12:35:13 437.405
UKube-1 29 May 12:32:35 12:36:08 24° 292° (WNW) 12:39:35 .
BUGSAT 1 29 May 12:40:54 12:43:35 16° 269° (W) 12:46:08 437.445
DX 1 29 May 12:45:47 12:48:43 17° 295° (WNW) 12:51:32 434.975-435.025
Oscar 19 29 May 12:51:14 12:55:49 34° 69° (ENE) 13:00:29 437.125/150
CUBEBUG 1 29 May 12:59:41 13:03:55 42° 288° (WNW) 13:08:05 437.445
VELOX 1 29 May 13:09:59 13:13:14 19° 294° (WNW) 13:16:20 145.980
DANDE 29 May 13:12:00 13:19:20 78° 97° (E) 13:27:54 436.750
ITAMSAT 1 29 May 13:12:54 13:15:59 17° 63° (ENE) 13:19:17 435.822/435.867
ESTCUBE 1 29 May 13:23:00 13:26:36 23° 292° (WNW) 13:30:05 437.505/2401.250
CUSAT 1 29 May 13:25:17 13:32:51 72° 282° (WNW) 13:41:14 437.405
SPROUT 29 May 13:28:05 13:32:25 72° 284° (WNW) 13:36:43 437.525
Cosmos 2499 29 May 13:39:49 13:44:24 18° 83° (E) 13:49:15 435.465 / 435.565
TISAT 1 29 May 13:40:55 13:45:12 72° 285° (WNW) 13:49:25 437.305
Gurwin Techsat 1B 29 May 14:04:09 14:09:08 45° 71° (ENE) 14:14:13 435.225
GONETS M04 29 May 14:05:01 14:13:45 60° 283° (WNW) 14:22:29
RS-15 29 May 14:07:24 14:15:16 21° 6° (N) 14:23:28 29.354- 29.394
ITUPSAT 1 29 May 14:12:48 14:17:12 36° 97° (E) 14:21:38 437.325
BEESAT 29 May 14:18:38 14:23:10 42° 98° (E) 14:27:43 436.000
SWISSCUBE 29 May 14:27:27 14:32:11 57° 100° (E) 14:36:54 437.505
Oscar 19 29 May 14:30:39 14:35:12 29° 265° (W) 14:39:41 437.125/150
ITAMSAT 1 29 May 14:49:54 14:55:02 65° 259° (W) 15:00:12 435.822/435.867
DANDE 29 May 14:57:26 15:03:40 25° 299° (WNW) 15:10:12 436.750
AO-7 29 May 15:06:00 15:13:36 43° 63° (ENE) 15:21:20 29.400- 29.500
HORYU 2 29 May 15:06:49 15:10:38 29° 69° (ENE) 15:14:32 437.375
CUSAT 1 29 May 15:12:25 15:17:17 16° 304° (NW) 15:21:51 437.405
O/OREOS (USA 219) 29 May 15:14:25 15:18:50 57° 109° (ESE) 15:23:15 437.305
KKS-1 29 May 15:15:27 15:19:20 29° 96° (E) 15:23:14 437.445
JAS-2 29 May 15:20:06 15:26:15 47° 72° (ENE) 15:31:49 435.910
Cosmos 2499 29 May 15:28:45 15:36:52 82° 278° (W) 15:44:24 435.465 / 435.565
Gurwin Techsat 1B 29 May 15:45:13 15:49:23 22° 268° (W) 15:53:26 435.225
ITUPSAT 1 29 May 15:51:03 15:54:56 24° 293° (WNW) 15:58:43 437.325
BEESAT 29 May 15:57:09 16:00:46 21° 294° (WNW) 16:04:15 436.000
SWISSCUBE 29 May 16:06:37 16:09:38 16° 296° (WNW) 16:12:28 437.505
GONETS M04 29 May 16:10:06 16:13:03 11° 307° (NW) 16:15:17
STARS 29 May 16:12:25 16:16:51 76° 102° (ESE) 16:21:15 437.465
RS-15 29 May 16:21:34 16:32:07 40° 39° (NE) 16:43:15 29.354- 29.394
HORYU 2 29 May 16:43:29 16:47:17 26° 265° (W) 16:51:00 437.375
KKS-1 29 May 16:52:08 16:55:53 26° 292° (WNW) 16:59:33 437.445
BEESAT 2 29 May 16:53:27 16:56:29 21° 113° (ESE) 16:59:38 435.950
O/OREOS (USA 219) 29 May 16:55:53 16:58:41 16° 307° (NW) 17:01:21 437.305
AO-7 29 May 16:58:34 17:06:25 44° 261° (W) 17:14:14 29.400- 29.500
MOZHAYETS 4 29 May 17:04:25 17:08:36 36° 96° (E) 17:12:50
JAS-2 29 May 17:06:03 17:11:32 27° 265° (W) 17:16:25 435.910
